Dillon, MT

9:58 PM MDT on June 25, 2017 (GMT -0600)
Dillon

Weather History for KDLN - January, 2013

Change the Weather History Date:

Wednesday, January 2, 2013

  Actual Average Record
Temperature  
Mean Temperature 10 °F 22 °F  
Max Temperature 20 °F 31 °F 47 °F (1939)
Min Temperature -1 °F 12 °F -19 °F (1968)
Degree Days  
Heating Degree Days 55    
Month to date heating degree days 105  
Since 1 July heating degree days 3163  
Cooling Degree Days 0    
Month to date cooling degree days 0  
Year to date cooling degree days 0  
Moisture  
Dew Point -1 °F    
Average Humidity 71    
Maximum Humidity 87    
Minimum Humidity 54    
Precipitation  
Precipitation 0.00 in 0.01 in 0.24 in (1955)
Month to date precipitation 0.00 0.02  
Year to date precipitation 0.00 0.02  
Snow  
Snow 0.00 in - - ()
Snow Depth T in    
Sea Level Pressure  
Sea Level Pressure 30.62 in    
Wind  
Wind Speed 6 mph (South)    
Max Wind Speed 12 mph    
Max Gust Speed 13 mph    
Visibility 10 miles    
Events      
T = Trace of Precipitation, MM = Missing Value Source: NWS Daily Summary

Daily Weather History Graph

Daily Weather History Graph

Search for Another Location

Airport or City:

Trip Planner

Search our weather history database for the weather conditions in past years. The results will help you decide how hot, cold, wet, or windy it might be!

Date:

Astronomy

Jan. 02, 2013 Rise Set
Actual Time 8:09 AM MST 4:59 PM MST
Civil Twilight 7:35 AM MST 5:33 PM MST
Nautical Twilight 6:58 AM MST 6:10 PM MST
Astronomical Twilight 6:22 AM MST 6:46 PM MST
Moon 10:53 PM MST (1/2) 10:37 AM MST (1/2)
Length of Visible Light 9h 57m
Length of Day
8h 50m
Waning Gibbous, 74% of the Moon is Illuminated
Jan 2
Waning Gibbous
Jan 4
Last Quarter
Jan 11
New
Jan 18
First Quarter
Jan 26
Full

Hourly Weather History & Observations

Time (MST) Temp. Windchill Dew Point Humidity Pressure Visibility Wind Dir Wind Speed Gust Speed Precip Events Conditions
12:53 AM 5.0 °F -6.9 °F -0.0 °F 80% 30.52 in 10.0 mi South 6.9 mph - N/A   Clear
2:53 AM 6.1 °F -4.3 °F -0.0 °F 76% 30.51 in 10.0 mi South 5.8 mph - N/A   Clear
3:53 AM -0.0 °F -7.9 °F -5.1 °F 79% 30.54 in 10.0 mi ESE 3.5 mph - N/A   Clear
4:53 AM 1.9 °F -12.9 °F -2.9 °F 80% 30.57 in 10.0 mi SSW 9.2 mph - N/A   Clear
5:53 AM 3.9 °F -9.4 °F -2.0 °F 76% 30.61 in 10.0 mi South 8.1 mph - N/A   Clear
6:53 AM 1.9 °F -7.6 °F -4.0 °F 76% 30.63 in 10.0 mi South 4.6 mph - N/A   Clear
7:53 AM 1.0 °F -12.9 °F -5.1 °F 75% 30.65 in 10.0 mi South 8.1 mph - N/A   Clear
8:53 AM 3.0 °F -10.5 °F -2.9 °F 76% 30.66 in 10.0 mi South 8.1 mph - N/A   Clear
9:53 AM 1.9 °F -7.6 °F -2.9 °F 80% 30.69 in 10.0 mi SSW 4.6 mph - N/A   Clear
10:53 AM 9.0 °F -2.2 °F 1.0 °F 70% 30.65 in 10.0 mi South 6.9 mph - N/A   Clear
11:53 AM 12.9 °F 1.6 °F 3.9 °F 67% 30.65 in 10.0 mi SW 8.1 mph - N/A   Clear
12:53 PM 14.0 °F - 3.0 °F 62% 30.62 in 10.0 mi Calm Calm - N/A   Clear
1:53 PM 18.0 °F - 3.0 °F 52% 30.58 in 10.0 mi Calm Calm - N/A   Clear
2:53 PM 18.0 °F - 3.9 °F 54% 30.58 in 10.0 mi Calm Calm - N/A   Clear
3:53 PM 18.0 °F - 5.0 °F 57% 30.61 in 10.0 mi Calm Calm - N/A   Clear
4:53 PM 12.9 °F 6.9 °F 1.9 °F 62% 30.63 in 10.0 mi SSE 3.5 mph - N/A   Clear
5:53 PM 5.0 °F -5.6 °F -2.9 °F 70% 30.65 in 10.0 mi SE 5.8 mph - N/A   Clear
6:53 PM 8.1 °F -2.0 °F -0.0 °F 70% 30.66 in 10.0 mi South 5.8 mph - N/A   Clear
7:53 PM 9.0 °F -4.2 °F -0.0 °F 67% 30.66 in 10.0 mi South 9.2 mph - N/A   Clear
8:53 PM 7.0 °F -1.7 °F -2.0 °F 67% 30.65 in 10.0 mi South 4.6 mph - N/A   Clear
9:53 PM 8.1 °F -3.2 °F -2.9 °F 61% 30.64 in 10.0 mi SSW 6.9 mph - N/A   Clear
10:53 PM 5.0 °F -6.9 °F -2.9 °F 70% 30.63 in 10.0 mi South 6.9 mph - N/A   Clear
11:53 PM 6.1 °F -5.6 °F -2.0 °F 69% 30.61 in 10.0 mi South 6.9 mph - N/A   Clear